#timestamp,LO_Frequency,Hit,StdDev 
1597442415.4,286047000.2,N
1597442435.2,286046999.8,N
1597442455.1,286047000.0,N
1597442456.0,286047000.0,N
1597442475.8,286046999.9,N
1597442495.6,286047000.3,N
1597442515.5,286047000.2,N
1597442535.3,286046999.9,N
1597442555.1,286047000.9,N
1597442575.9,286047000.4,N
1597442595.7,286047002.4,N
1597442615.6,286047002.6,N
1597442635.4,286047002.8,Y
1597442655.2,286047001.2,P
1597442675.1,286047000.7,N
1597442676.0,286047000.7,N
1597442695.8,286047000.3,N
1597442715.6,286047000.2,N
1597442735.5,286047000.3,N
1597442755.3,286047000.5,N
1597442775.2,286047000.1,N
1597442795.0,286047000.1,N
1597442795.9,286047000.1,N
1597442815.8,286047000.3,N
1597442835.6,286047000.5,N
1597442855.5,286046999.7,N
1597442875.3,286046999.7,N
1597442895.2,286047000.3,N
1597442915.9,286046999.8,N
1597442935.7,286046999.9,N
1597442955.6,286046999.7,N
1597442975.4,286047000.3,N
1597442995.2,286047000.2,N
1597443015.1,286047000.6,N
1597443016.0,286047000.6,N
1597443035.8,286047001.1,N
1597443055.7,286046998.5,Y
1597443075.5,286046998.6,P
1597443095.3,286047000.9,N
1597443115.2,286046998.9,N
1597443135.0,286046998.6,N
1597443135.9,286046998.6,N
1597443155.8,286046998.4,N
1597443175.6,286047001.2,N
1597443195.4,286047000.2,N
1597443215.3,286046999.0,N
1597443235.1,286046998.2,N
1597443255.8,286046998.7,N
1597443275.7,286046999.0,N
1597443295.5,286046998.4,N
1597443315.4,286046999.6,N
1597443335.2,286046999.3,N
1597443355.0,286046999.6,N
1597443355.9,286046999.6,N
1597443375.8,286046996.9,Y
1597443395.6,286046998.9,P
1597443415.5,286046997.5,P
1597443435.3,286046996.5,P
1597443455.1,286046997.2,N
1597443475.9,286046997.1,N
1597443495.7,286046999.2,N
1597443515.5,286046999.6,N
1597443535.4,286046997.9,N
1597443555.2,286046997.5,N
1597443575.1,286046998.9,N
1597443576.0,286046998.9,N
1597443595.8,286046996.8,Y
1597443615.6,286046998.3,P
1597443635.5,286046998.4,P
1597443655.3,286046998.4,P
1597443675.2,286046998.2,Y
1597443695.9,286047001.2,P
1597443715.7,286046998.3,N
1597443735.6,286047000.7,N
1597443755.4,286046998.7,N
1597443775.2,286047000.6,N
1597443795.1,286047001.0,N
1597443796.0,286047001.0,N
1597443815.8,286047000.8,N
1597443835.7,286046998.3,N
1597443855.5,286046998.7,N
1597443875.3,286046998.7,N
1597443895.2,286046998.9,N
1597443915.0,286046999.3,N
1597443915.9,286046999.3,N
1597443935.7,286046998.7,N
1597443955.6,286046996.5,Y
1597443975.4,286047001.1,P
1597443995.3,286046999.0,N
1597444015.1,286046998.8,N
1597444016.0,286046998.8,N
1597444035.8,286046998.7,N
1597444055.7,286046999.5,N
1597444075.5,286046999.4,N
1597444095.3,286047000.8,N
1597444115.2,286047001.1,N
1597444135.0,286047000.5,N
1597444135.9,286047000.5,N
1597444155.8,286047000.4,N
1597444175.6,286047000.8,N
1597444195.4,286047000.9,N
1597444215.3,286047000.9,N
1597444235.1,286047000.6,N
1597444255.9,286047000.2,N
1597444275.7,286047000.9,N
1597444295.5,286047000.4,N
1597444315.4,286046999.9,N
1597444335.2,286047000.1,N
1597444355.0,286047002.1,N
1597444356.0,286047002.1,N
1597444375.8,286047002.0,N
1597444395.6,286047002.4,N
1597444415.5,286046999.8,N
1597444435.3,286047002.8,N
1597444455.1,286047000.2,N
1597444475.9,286047000.1,N
1597444495.7,286047002.7,N
1597444515.6,286047002.0,N
1597444535.4,286047002.6,N
1597444555.2,286047002.2,N
1597444575.1,286047002.1,N
1597444576.0,286047002.1,N
1597444595.8,286047002.2,N
1597444615.6,286047004.4,Y
1597444635.5,286047002.6,P
1597444655.3,286047002.6,P
1597444675.2,286047002.5,P
1597444695.9,286047002.8,Y
1597444715.7,286046998.1,P
1597444735.6,286047000.5,N
1597444755.4,286046998.8,N
1597444775.2,286046998.3,N
1597444795.1,286046998.4,N
1597444796.0,286046998.4,N
1597444815.8,286047001.1,N
1597444835.7,286047001.2,N
1597444855.5,286047001.0,N
1597444875.3,286046999.9,N
1597444895.2,286047000.7,N
1597444915.0,286047000.5,N
1597444915.9,286047000.5,N
1597444935.8,286047000.3,N
1597444955.6,286047000.3,N
1597444975.4,286046999.8,N
1597444995.3,286047000.9,N
1597445015.1,286046999.7,N
1597445035.8,286046999.9,N
1597445055.7,286046999.8,N
1597445075.5,286046999.8,N
1597445095.3,286047000.4,N
1597445115.2,286047000.4,N
1597445135.0,286047000.6,N
1597445135.9,286047000.6,N
1597445155.8,286047000.4,N
1597445175.6,286046999.9,N
1597445195.4,286047000.1,N
1597445215.3,286047002.3,N
1597445235.1,286047002.6,N
1597445255.9,286047002.1,N
1597445275.7,286047002.0,N
1597445295.5,286047001.9,N
1597445315.4,286047002.2,N
1597445335.2,286046999.7,N
1597445355.0,286047002.8,N
1597445355.9,286047002.8,N
1597445375.8,286047000.3,N
1597445395.6,286047000.0,N
1597445415.5,286046999.8,N
1597445435.3,286047000.0,N
1597445455.1,286047000.0,N
1597445475.9,286047000.6,N
1597445495.7,286046999.9,N
1597445515.5,286047000.8,N
1597445535.4,286047001.1,N
1597445555.2,286047000.7,N
1597445575.1,286047001.1,N
1597445576.0,286047001.1,N
1597445595.8,286046999.8,N
1597445615.6,286047000.3,N
1597445635.5,286047000.5,N
1597445655.3,286047000.6,N
1597445675.1,286047000.0,N
1597445695.9,286046999.9,N
1597445715.7,286046999.9,N
1597445735.6,286047000.1,N
1597445755.4,286047000.2,N
1597445775.2,286047000.6,N
1597445795.1,286047001.0,N
1597445796.0,286047001.0,N
1597445815.8,286047000.6,N
1597445835.6,286047000.4,N
1597445855.5,286047000.1,N
1597445875.3,286047000.2,N
1597445895.2,286047000.3,N
1597445915.9,286046999.8,N
1597445935.7,286047000.0,N
1597445955.6,286047000.6,N
1597445975.4,286047001.1,N
1597445995.2,286047001.0,N
